| time (UTC) | temp F | wind direction | speed MPH | gust MPH | rain 1hr in | rain 24hr in | rain mn in | humidity % | barometer mb |
| 20260507030009 | 44 | 337 | 5.0 | 8.0 | 0.00 | 0.00 | 0.00 | 87 | 1007.0 |
| 20260507025808 | 44 | 334 | 4.0 | 8.0 | 0.00 | 0.00 | 0.00 | 87 | 1007.0 |
| 20260507025608 | 44 | 335 | 0.0 | 8.0 | 0.00 | 0.00 | 0.00 | 87 | 1007.0 |
| 20260507025409 | 44 | 336 | 6.0 | 11.0 | 0.00 | 0.00 | 0.00 | 87 | 1007.0 |
| 20260507025008 | 44 | 332 | 4.0 | 11.0 | 0.00 | 0.00 | 0.00 | 87 | 1007.0 |
| 20260507024610 | 44 | 336 | 7.0 | 11.0 | 0.00 | 0.00 | 0.00 | 86 | 1007.0 |
| 20260507024408 | 44 | 337 | 3.0 | 10.0 | 0.00 | 0.00 | 0.00 | 86 | 1007.0 |
| 20260507023609 | 44 | 339 | 6.0 | 10.0 | 0.00 | 0.00 | 0.00 | 86 | 1007.0 |
| 20260507023408 | 44 | 335 | 5.0 | 10.0 | 0.00 | 0.00 | 0.00 | 86 | 1007.0 |
| 20260507023208 | 44 | 325 | 3.0 | 10.0 | 0.00 | 0.00 | 0.00 | 86 | 1007.0 |
| 20260507023009 | 44 | 339 | 5.0 | 9.0 | 0.00 | 0.00 | 0.00 | 86 | 1007.0 |
| 20260507022808 | 44 | 340 | 4.0 | 9.0 | 0.00 | 0.00 | 0.00 | 85 | 1007.0 |
| 20260507022609 | 44 | 339 | 4.0 | 9.0 | 0.00 | 0.00 | 0.00 | 85 | 1007.0 |
| 20260507022410 | 44 | 344 | 3.0 | 9.0 | 0.00 | 0.00 | 0.00 | 85 | 1007.0 |
| 20260507022008 | 44 | 340 | 3.0 | 9.0 | 0.00 | 0.00 | 0.00 | 85 | 1007.0 |
| 20260507021809 | 44 | 340 | 4.0 | 9.0 | 0.00 | 0.00 | 0.00 | 85 | 1007.0 |
| 20260507021608 | 44 | 337 | 7.0 | 9.0 | 0.00 | 0.00 | 0.00 | 85 | 1007.0 |
| 20260507021008 | 45 | 287 | 3.0 | 7.0 | 0.00 | 0.00 | 0.00 | 85 | 1007.0 |
| 20260507020409 | 45 | 339 | 3.0 | 11.0 | 0.00 | 0.00 | 0.00 | 84 | 1007.0 |
| 20260507020208 | 45 | 339 | 3.0 | 11.0 | 0.00 | 0.00 | 0.00 | 84 | 1007.0 |
| 20260507020009 | 45 | 335 | 4.0 | 11.0 | 0.00 | 0.00 | 0.00 | 84 | 1007.0 |
| 20260507015809 | 45 | 342 | 4.0 | 11.0 | 0.00 | 0.00 | 0.00 | 84 | 1007.0 |
| 20260507015608 | 45 | 325 | 4.0 | 9.0 | 0.00 | 0.00 | 0.00 | 83 | 1007.0 |
| 20260507015408 | 45 | 314 | 5.0 | 10.0 | 0.00 | 0.00 | 0.00 | 83 | 1007.0 |
| 20260507015208 | 45 | 298 | 3.0 | 10.0 | 0.00 | 0.00 | 0.00 | 83 | 1007.0 |
| 20260507015009 | 45 | 301 | 3.0 | 10.0 | 0.00 | 0.00 | 0.00 | 83 | 1007.0 |
| 20260507014809 | 45 | 303 | 7.0 | 10.0 | 0.00 | 0.00 | 0.00 | 83 | 1007.0 |
| 20260507014608 | 45 | 300 | 6.0 | 10.0 | 0.00 | 0.00 | 0.00 | 83 | 1007.0 |
| 20260507014409 | 45 | 302 | 4.0 | 8.0 | 0.00 | 0.00 | 0.00 | 82 | 1006.0 |
| 20260507014209 | 45 | 315 | 4.0 | 8.0 | 0.00 | 0.00 | 0.00 | 83 | 1006.0 |
| 20260507014008 | 45 | 320 | 4.0 | 7.0 | 0.00 | 0.00 | 0.00 | 82 | 1006.0 |
| 20260507013808 | 45 | 322 | 4.0 | 7.0 | 0.00 | 0.00 | 0.00 | 82 | 1006.0 |
| 20260507013609 | 45 | 329 | 4.0 | 7.0 | 0.00 | 0.00 | 0.00 | 82 | 1006.0 |
| 20260507013408 | 45 | 318 | 4.0 | 7.0 | 0.00 | 0.00 | 0.00 | 82 | 1006.0 |
| 20260507013209 | 45 | 315 | 3.0 | 7.0 | 0.00 | 0.00 | 0.00 | 83 | 1006.0 |
| 20260507013008 | 45 | 304 | 3.0 | 7.0 | 0.00 | 0.00 | 0.00 | 82 | 1006.0 |
| 20260507012808 | 45 | 328 | 3.0 | 9.0 | 0.00 | 0.00 | 0.00 | 82 | 1007.0 |
| 20260507012608 | 45 | 328 | 5.0 | 9.0 | 0.00 | 0.00 | 0.00 | 82 | 1007.0 |
| 20260507012408 | 45 | 335 | 3.0 | 9.0 | 0.00 | 0.00 | 0.00 | 83 | 1007.0 |
| 20260507012008 | 45 | 337 | 7.0 | 9.0 | 0.00 | 0.00 | 0.00 | 82 | 1007.0 |
| 20260507011809 | 45 | 325 | 4.0 | 8.0 | 0.00 | 0.00 | 0.00 | 82 | 1007.0 |
| 20260507011408 | 45 | 322 | 5.0 | 8.0 | 0.00 | 0.00 | 0.00 | 82 | 1006.0 |
| 20260507011208 | 45 | 10 | 3.0 | 8.0 | 0.00 | 0.00 | 0.00 | 82 | 1006.0 |
| 20260507011008 | 45 | 341 | 5.0 | 9.0 | 0.00 | 0.00 | 0.00 | 82 | 1006.0 |
| 20260507010809 | 45 | 342 | 0.0 | 9.0 | 0.00 | 0.00 | 0.00 | 82 | 1006.0 |
| 20260507010608 | 45 | 327 | 3.0 | 9.0 | 0.00 | 0.00 | 0.00 | 82 | 1006.0 |
| 20260507010408 | 45 | 332 | 4.0 | 9.0 | 0.00 | 0.00 | 0.00 | 82 | 1006.0 |
| 20260507010209 | 45 | 337 | 4.0 | 10.0 | 0.00 | 0.00 | 0.00 | 82 | 1006.0 |
| 20260507010008 | 45 | 346 | 3.0 | 10.0 | 0.00 | 0.00 | 0.00 | 83 | 1006.0 |
| 20260507005409 | 45 | 345 | 6.0 | 10.0 | 0.00 | 0.00 | 0.00 | 82 | 1006.0 |
| 20260507005208 | 45 | 337 | 3.0 | 11.0 | 0.00 | 0.00 | 0.00 | 82 | 1006.0 |
| 20260507005009 | 45 | 327 | 4.0 | 11.0 | 0.00 | 0.00 | 0.00 | 82 | 1006.0 |
| 20260507004808 | 45 | 329 | 5.0 | 14.0 | 0.00 | 0.00 | 0.00 | 82 | 1006.0 |
| 20260507004608 | 45 | 328 | 6.0 | 14.0 | 0.00 | 0.00 | 0.00 | 82 | 1006.0 |
| 20260507004408 | 45 | 325 | 7.0 | 14.0 | 0.00 | 0.00 | 0.00 | 82 | 1006.0 |
| 20260507004209 | 45 | 323 | 6.0 | 14.0 | 0.00 | 0.00 | 0.00 | 82 | 1006.0 |
| 20260507004008 | 45 | 332 | 7.0 | 14.0 | 0.00 | 0.00 | 0.00 | 82 | 1006.0 |
| 20260507003808 | 45 | 319 | 4.0 | 10.0 | 0.00 | 0.00 | 0.00 | 82 | 1006.0 |
| 20260507003608 | 45 | 333 | 4.0 | 11.0 | 0.00 | 0.00 | 0.00 | 82 | 1006.0 |
| 20260507003409 | 45 | 340 | 6.0 | 11.0 | 0.00 | 0.00 | 0.00 | 82 | 1006.0 |
| 20260507003208 | 45 | 346 | 6.0 | 11.0 | 0.00 | 0.00 | 0.00 | 82 | 1006.0 |
| 20260507003008 | 45 | 348 | 6.0 | 11.0 | 0.00 | 0.00 | 0.00 | 82 | 1006.0 |
| 20260507002809 | 45 | 349 | 5.0 | 11.0 | 0.00 | 0.00 | 0.00 | 82 | 1006.0 |
| 20260507002608 | 45 | 348 | 5.0 | 11.0 | 0.00 | 0.00 | 0.00 | 82 | 1006.0 |
| 20260507002408 | 45 | 337 | 5.0 | 11.0 | 0.00 | 0.00 | 0.00 | 82 | 1006.0 |
| 20260507002210 | 45 | 338 | 6.0 | 11.0 | 0.00 | 0.00 | 0.00 | 82 | 1006.0 |
| 20260507002009 | 45 | 329 | 4.0 | 9.0 | 0.00 | 0.00 | 0.00 | 82 | 1006.0 |
| 20260507001808 | 45 | 322 | 7.0 | 10.0 | 0.00 | 0.00 | 0.00 | 82 | 1006.0 |
| 20260507001608 | 45 | 321 | 5.0 | 10.0 | 0.00 | 0.00 | 0.00 | 82 | 1006.0 |
| 20260507001409 | 45 | 328 | 6.0 | 10.0 | 0.00 | 0.00 | 0.00 | 82 | 1006.0 |
| 20260507001209 | 45 | 324 | 4.0 | 11.0 | 0.00 | 0.00 | 0.00 | 82 | 1006.0 |
| 20260507001008 | 45 | 323 | 4.0 | 11.0 | 0.00 | 0.00 | 0.00 | 82 | 1006.0 |
| 20260507000608 | 45 | 325 | 6.0 | 11.0 | 0.00 | 0.00 | 0.00 | 82 | 1006.0 |
| 20260507000409 | 45 | 320 | 6.0 | 11.0 | 0.00 | 0.00 | 0.00 | 82 | 1006.0 |
| 20260507000008 | 45 | 324 | 5.0 | 11.0 | 0.00 | 0.00 | 0.00 | 81 | 1006.0 |
| 20260506235810 | 45 | 320 | 4.0 | 11.0 | 0.00 | 0.00 | 0.00 | 81 | 1006.0 |
| 20260506235408 | 46 | 332 | 7.0 | 11.0 | 0.00 | 0.00 | 0.00 | 82 | 1006.0 |
| 20260506235209 | 46 | 331 | 4.0 | 10.0 | 0.00 | 0.00 | 0.00 | 82 | 1006.0 |
| 20260506234408 | 46 | 330 | 5.0 | 11.0 | 0.00 | 0.00 | 0.00 | 81 | 1006.0 |
| 20260506234208 | 46 | 335 | 5.0 | 11.0 | 0.00 | 0.00 | 0.00 | 81 | 1006.0 |
| 20260506234009 | 46 | 349 | 4.0 | 11.0 | 0.00 | 0.00 | 0.00 | 82 | 1006.0 |
| 20260506233409 | 46 | 345 | 4.0 | 10.0 | 0.00 | 0.00 | 0.00 | 81 | 1006.0 |
| 20260506233208 | 46 | 339 | 6.0 | 10.0 | 0.00 | 0.00 | 0.00 | 81 | 1006.0 |
| 20260506233008 | 46 | 343 | 5.0 | 10.0 | 0.00 | 0.00 | 0.00 | 81 | 1006.0 |
| 20260506232809 | 46 | 345 | 3.0 | 10.0 | 0.00 | 0.00 | 0.00 | 81 | 1006.0 |
| 20260506232608 | 46 | 344 | 0.0 | 10.0 | 0.00 | 0.00 | 0.00 | 81 | 1006.0 |
| 20260506232408 | 46 | 346 | 7.0 | 10.0 | 0.00 | 0.00 | 0.00 | 81 | 1006.0 |
| 20260506232208 | 46 | 340 | 4.0 | 10.0 | 0.00 | 0.00 | 0.00 | 81 | 1006.0 |
| 20260506232009 | 46 | 325 | 4.0 | 10.0 | 0.00 | 0.00 | 0.00 | 81 | 1006.0 |
| 20260506231809 | 46 | 323 | 3.0 | 7.0 | 0.00 | 0.00 | 0.00 | 82 | 1006.0 |
| 20260506231609 | 46 | 332 | 5.0 | 8.0 | 0.00 | 0.00 | 0.00 | 82 | 1006.0 |
| 20260506231408 | 46 | 330 | 5.0 | 8.0 | 0.00 | 0.00 | 0.00 | 82 | 1006.0 |
| 20260506231209 | 46 | 350 | 4.0 | 10.0 | 0.00 | 0.00 | 0.00 | 82 | 1006.0 |
| 20260506231008 | 46 | 353 | 3.0 | 10.0 | 0.00 | 0.00 | 0.00 | 82 | 1006.0 |
| 20260506230808 | 46 | 352 | 5.0 | 10.0 | 0.00 | 0.00 | 0.00 | 82 | 1006.0 |
| 20260506230209 | 46 | 348 | 6.0 | 9.0 | 0.00 | 0.00 | 0.00 | 81 | 1006.0 |
| 20260506230008 | 46 | 332 | 0.0 | 9.0 | 0.00 | 0.00 | 0.00 | 81 | 1006.0 |
| 20260506225809 | 46 | 324 | 7.0 | 9.0 | 0.00 | 0.00 | 0.00 | 81 | 1006.0 |
| 20260506225609 | 46 | 318 | 4.0 | 8.0 | 0.00 | 0.00 | 0.00 | 81 | 1006.0 |
| 20260506225408 | 46 | 330 | 4.0 | 8.0 | 0.00 | 0.00 | 0.00 | 81 | 1006.0 |
| 20260506225208 | 46 | 332 | 4.0 | 8.0 | 0.00 | 0.00 | 0.00 | 81 | 1006.0 |
| 20260506225008 | 46 | 339 | 6.0 | 8.0 | 0.00 | 0.00 | 0.00 | 81 | 1006.0 |
| 20260506224809 | 46 | 343 | 4.0 | 8.0 | 0.00 | 0.00 | 0.00 | 81 | 1006.0 |
| 20260506224609 | 46 | 349 | 4.0 | 7.0 | 0.00 | 0.00 | 0.00 | 81 | 1006.0 |
| 20260506224408 | 46 | 340 | 3.0 | 6.0 | 0.00 | 0.00 | 0.00 | 82 | 1006.0 |
| 20260506224209 | 46 | 350 | 4.0 | 7.0 | 0.00 | 0.00 | 0.00 | 82 | 1006.0 |
| 20260506224009 | 46 | 357 | 0.0 | 7.0 | 0.00 | 0.00 | 0.00 | 82 | 1006.0 |
| 20260506223808 | 46 | 355 | 3.0 | 8.0 | 0.00 | 0.00 | 0.00 | 82 | 1006.0 |
| 20260506223608 | 46 | 349 | 3.0 | 8.0 | 0.00 | 0.00 | 0.00 | 81 | 1006.0 |
| 20260506223409 | 46 | 346 | 6.0 | 8.0 | 0.00 | 0.00 | 0.00 | 81 | 1006.0 |
| 20260506223208 | 46 | 331 | 6.0 | 8.0 | 0.00 | 0.00 | 0.00 | 81 | 1006.0 |
| 20260506223008 | 46 | 322 | 3.0 | 10.0 | 0.00 | 0.00 | 0.00 | 82 | 1006.0 |
| 20260506222809 | 46 | 325 | 4.0 | 10.0 | 0.00 | 0.00 | 0.00 | 82 | 1006.0 |
| 20260506222608 | 46 | 334 | 4.0 | 10.0 | 0.00 | 0.00 | 0.00 | 82 | 1006.0 |
| 20260506222409 | 46 | 336 | 3.0 | 10.0 | 0.00 | 0.00 | 0.00 | 82 | 1006.0 |
| 20260506222208 | 46 | 331 | 5.0 | 10.0 | 0.00 | 0.00 | 0.00 | 82 | 1006.0 |
| 20260506222010 | 46 | 317 | 4.0 | 8.0 | 0.00 | 0.00 | 0.00 | 82 | 1006.0 |
| 20260506221809 | 46 | 333 | 4.0 | 10.0 | 0.00 | 0.00 | 0.00 | 82 | 1006.0 |
| 20260506221208 | 46 | 347 | 3.0 | 10.0 | 0.00 | 0.00 | 0.00 | 82 | 1006.0 |
| 20260506221009 | 46 | 348 | 6.0 | 10.0 | 0.00 | 0.00 | 0.00 | 82 | 1006.0 |
| 20260506220808 | 46 | 345 | 4.0 | 9.0 | 0.00 | 0.00 | 0.00 | 82 | 1006.0 |
| 20260506220408 | 46 | 354 | 4.0 | 10.0 | 0.00 | 0.00 | 0.00 | 83 | 1006.0 |
| 20260506220209 | 46 | 355 | 7.0 | 10.0 | 0.00 | 0.00 | 0.00 | 83 | 1006.0 |
| 20260506215808 | 46 | 356 | 8.0 | 10.0 | 0.00 | 0.00 | 0.00 | 82 | 1006.0 |
| 20260506215609 | 47 | 354 | 4.0 | 9.0 | 0.00 | 0.00 | 0.00 | 82 | 1006.0 |
| 20260506215409 | 47 | 353 | 4.0 | 9.0 | 0.00 | 0.00 | 0.00 | 82 | 1006.0 |
| 20260506215208 | 47 | 343 | 6.0 | 9.0 | 0.00 | 0.00 | 0.00 | 82 | 1006.0 |
| 20260506215008 | 47 | 349 | 5.0 | 8.0 | 0.00 | 0.00 | 0.00 | 82 | 1006.0 |
| 20260506214810 | 47 | 330 | 4.0 | 6.0 | 0.00 | 0.00 | 0.00 | 82 | 1006.0 |
| 20260506214609 | 47 | 325 | 3.0 | 6.0 | 0.00 | 0.00 | 0.00 | 82 | 1006.0 |
| 20260506214408 | 47 | 341 | 3.0 | 6.0 | 0.00 | 0.00 | 0.00 | 82 | 1006.0 |
| 20260506214208 | 47 | 346 | 0.0 | 6.0 | 0.00 | 0.00 | 0.00 | 82 | 1006.0 |
| 20260506213810 | 47 | 341 | 4.0 | 9.0 | 0.00 | 0.00 | 0.00 | 83 | 1006.0 |
| 20260506213608 | 47 | 347 | 4.0 | 10.0 | 0.00 | 0.00 | 0.00 | 83 | 1006.0 |
| 20260506213409 | 47 | 353 | 4.0 | 10.0 | 0.00 | 0.00 | 0.00 | 83 | 1006.0 |
| 20260506213208 | 46 | 1 | 0.0 | 12.0 | 0.00 | 0.00 | 0.00 | 83 | 1006.0 |
| 20260506213008 | 46 | 358 | 7.0 | 12.0 | 0.00 | 0.00 | 0.00 | 83 | 1006.0 |
| 20260506212409 | 46 | 5 | 7.0 | 12.0 | 0.00 | 0.00 | 0.00 | 83 | 1006.0 |
| 20260506212210 | 46 | 3 | 4.0 | 9.0 | 0.00 | 0.00 | 0.00 | 83 | 1006.0 |
| 20260506212009 | 46 | 8 | 6.0 | 9.0 | 0.00 | 0.00 | 0.00 | 82 | 1006.0 |
| 20260506211808 | 47 | 8 | 4.0 | 10.0 | 0.00 | 0.00 | 0.00 | 82 | 1006.0 |
| 20260506210809 | 47 | 343 | 0.0 | 8.0 | 0.00 | 0.00 | 0.00 | 81 | 1005.0 |
| 20260506210608 | 47 | 343 | 3.0 | 9.0 | 0.00 | 0.00 | 0.00 | 81 | 1005.0 |
| 20260506210409 | 47 | 347 | 5.0 | 9.0 | 0.00 | 0.00 | 0.00 | 81 | 1005.0 |
| 20260506210208 | 47 | 343 | 4.0 | 9.0 | 0.00 | 0.00 | 0.00 | 81 | 1005.0 |
| 20260506210009 | 47 | 339 | 4.0 | 10.0 | 0.00 | 0.00 | 0.00 | 81 | 1005.0 |
| 20260506205809 | 47 | 342 | 5.0 | 11.0 | 0.00 | 0.00 | 0.00 | 80 | 1005.0 |
| 20260506205608 | 47 | 339 | 5.0 | 11.0 | 0.00 | 0.00 | 0.00 | 80 | 1005.0 |
| 20260506205209 | 47 | 329 | 6.0 | 11.0 | 0.00 | 0.00 | 0.00 | 80 | 1005.0 |
| 20260506205009 | 47 | 330 | 7.0 | 11.0 | 0.00 | 0.00 | 0.00 | 80 | 1005.0 |
| 20260506204809 | 47 | 326 | 4.0 | 9.0 | 0.00 | 0.00 | 0.00 | 81 | 1005.0 |
| 20260506204608 | 47 | 329 | 4.0 | 9.0 | 0.00 | 0.00 | 0.00 | 81 | 1005.0 |
| 20260506204409 | 47 | 337 | 4.0 | 12.0 | 0.00 | 0.00 | 0.00 | 81 | 1005.0 |
| 20260506204208 | 47 | 320 | 5.0 | 12.0 | 0.00 | 0.00 | 0.00 | 81 | 1005.0 |
| 20260506203408 | 47 | 342 | 5.0 | 13.0 | 0.00 | 0.00 | 0.00 | 82 | 1005.0 |
| 20260506202809 | 47 | 346 | 7.0 | 11.0 | 0.00 | 0.00 | 0.00 | 80 | 1005.0 |
| 20260506202609 | 47 | 345 | 7.0 | 11.0 | 0.00 | 0.00 | 0.00 | 80 | 1005.0 |
| 20260506202008 | 48 | 345 | 5.0 | 10.0 | 0.00 | 0.00 | 0.00 | 79 | 1005.0 |
| 20260506201609 | 48 | 340 | 6.0 | 10.0 | 0.00 | 0.00 | 0.00 | 78 | 1005.0 |
| 20260506201409 | 48 | 331 | 4.0 | 9.0 | 0.00 | 0.00 | 0.00 | 78 | 1005.0 |
| 20260506201008 | 48 | 301 | 4.0 | 9.0 | 0.00 | 0.00 | 0.00 | 78 | 1005.0 |
| 20260506200809 | 48 | 306 | 5.0 | 9.0 | 0.00 | 0.00 | 0.00 | 78 | 1005.0 |
| 20260506200608 | 48 | 309 | 4.0 | 9.0 | 0.00 | 0.00 | 0.00 | 79 | 1005.0 |
| 20260506200408 | 49 | 308 | 4.0 | 8.0 | 0.00 | 0.00 | 0.00 | 79 | 1005.0 |
| 20260506200209 | 48 | 324 | 4.0 | 11.0 | 0.00 | 0.00 | 0.00 | 79 | 1005.0 |
| 20260506200008 | 48 | 324 | 6.0 | 11.0 | 0.00 | 0.00 | 0.00 | 79 | 1005.0 |
| 20260506195809 | 48 | 321 | 4.0 | 11.0 | 0.00 | 0.00 | 0.00 | 79 | 1005.0 |
| 20260506195608 | 48 | 324 | 4.0 | 12.0 | 0.00 | 0.00 | 0.00 | 79 | 1005.0 |
| 20260506195009 | 48 | 338 | 6.0 | 12.0 | 0.00 | 0.00 | 0.00 | 79 | 1005.0 |
| 20260506194810 | 48 | 3 | 5.0 | 12.0 | 0.00 | 0.00 | 0.00 | 79 | 1005.0 |
| 20260506194609 | 49 | 3 | 3.0 | 8.0 | 0.00 | 0.00 | 0.00 | 79 | 1005.0 |
| 20260506194408 | 48 | 353 | 6.0 | 9.0 | 0.00 | 0.00 | 0.00 | 79 | 1005.0 |
| 20260506194208 | 48 | 345 | 6.0 | 9.0 | 0.00 | 0.00 | 0.00 | 79 | 1005.0 |
| 20260506194009 | 49 | 340 | 4.0 | 10.0 | 0.00 | 0.00 | 0.00 | 79 | 1005.0 |
| 20260506193808 | 49 | 317 | 5.0 | 12.0 | 0.00 | 0.00 | 0.00 | 79 | 1005.0 |
| 20260506193609 | 49 | 308 | 6.0 | 12.0 | 0.00 | 0.00 | 0.00 | 78 | 1005.0 |
| 20260506192808 | 49 | 295 | 4.0 | 14.0 | 0.00 | 0.00 | 0.00 | 79 | 1005.0 |
| 20260506192608 | 49 | 313 | 4.0 | 14.0 | 0.00 | 0.00 | 0.00 | 79 | 1005.0 |
| 20260506192408 | 49 | 315 | 6.0 | 14.0 | 0.00 | 0.00 | 0.00 | 79 | 1005.0 |
| 20260506192209 | 49 | 317 | 6.0 | 14.0 | 0.00 | 0.00 | 0.00 | 79 | 1005.0 |
| 20260506192008 | 49 | 319 | 7.0 | 14.0 | 0.00 | 0.00 | 0.00 | 79 | 1005.0 |
| 20260506191808 | 49 | 317 | 7.0 | 12.0 | 0.00 | 0.00 | 0.00 | 78 | 1005.0 |
| 20260506191609 | 49 | 309 | 8.0 | 13.0 | 0.00 | 0.00 | 0.00 | 78 | 1005.0 |
| 20260506191408 | 49 | 311 | 7.0 | 13.0 | 0.00 | 0.00 | 0.00 | 78 | 1005.0 |
| 20260506191209 | 50 | 307 | 7.0 | 13.0 | 0.00 | 0.00 | 0.00 | 77 | 1005.0 |
| 20260506191010 | 50 | 300 | 7.0 | 13.0 | 0.00 | 0.00 | 0.00 | 77 | 1005.0 |
| 20260506190809 | 50 | 314 | 8.0 | 15.0 | 0.00 | 0.00 | 0.00 | 76 | 1005.0 |
| 20260506190608 | 50 | 325 | 7.0 | 15.0 | 0.00 | 0.00 | 0.00 | 77 | 1005.0 |
| 20260506190408 | 50 | 327 | 4.0 | 15.0 | 0.00 | 0.00 | 0.00 | 77 | 1005.0 |
| 20260506190208 | 50 | 336 | 5.0 | 15.0 | 0.00 | 0.00 | 0.00 | 77 | 1005.0 |
| 20260506190009 | 50 | 343 | 6.0 | 15.0 | 0.00 | 0.00 | 0.00 | 76 | 1005.0 |
| 20260506185808 | 50 | 337 | 7.0 | 13.0 | 0.00 | 0.00 | 0.00 | 76 | 1005.0 |
| 20260506185608 | 51 | 329 | 8.0 | 13.0 | 0.00 | 0.00 | 0.00 | 75 | 1005.0 |
| 20260506185410 | 51 | 337 | 9.0 | 13.0 | 0.00 | 0.00 | 0.00 | 75 | 1005.0 |
| 20260506185208 | 51 | 313 | 5.0 | 10.0 | 0.00 | 0.00 | 0.00 | 75 | 1005.0 |
| 20260506185008 | 51 | 316 | 6.0 | 10.0 | 0.00 | 0.00 | 0.00 | 75 | 1005.0 |
| 20260506184809 | 51 | 327 | 4.0 | 9.0 | 0.00 | 0.00 | 0.00 | 75 | 1005.0 |
| 20260506184609 | 51 | 334 | 4.0 | 10.0 | 0.00 | 0.00 | 0.00 | 75 | 1005.0 |
| 20260506184409 | 51 | 329 | 4.0 | 10.0 | 0.00 | 0.00 | 0.00 | 75 | 1005.0 |
| 20260506184208 | 51 | 327 | 6.0 | 10.0 | 0.00 | 0.00 | 0.00 | 74 | 1005.0 |
| 20260506184009 | 51 | 324 | 5.0 | 12.0 | 0.00 | 0.00 | 0.00 | 75 | 1005.0 |
| 20260506183808 | 51 | 313 | 6.0 | 12.0 | 0.00 | 0.00 | 0.00 | 74 | 1005.0 |
| 20260506183608 | 51 | 311 | 5.0 | 12.0 | 0.00 | 0.00 | 0.00 | 74 | 1005.0 |
| 20260506183409 | 51 | 299 | 4.0 | 12.0 | 0.00 | 0.00 | 0.00 | 73 | 1005.0 |
| 20260506182808 | 51 | 268 | 4.0 | 10.0 | 0.00 | 0.00 | 0.00 | 73 | 1004.0 |
| 20260506182608 | 51 | 277 | 4.0 | 10.0 | 0.00 | 0.00 | 0.00 | 73 | 1004.0 |
| 20260506182410 | 51 | 299 | 4.0 | 12.0 | 0.00 | 0.00 | 0.00 | 73 | 1004.0 |
| 20260506182209 | 52 | 312 | 5.0 | 12.0 | 0.00 | 0.00 | 0.00 | 73 | 1004.0 |
| 20260506182008 | 52 | 310 | 5.0 | 12.0 | 0.00 | 0.00 | 0.00 | 73 | 1004.0 |
| 20260506181808 | 52 | 315 | 7.0 | 13.0 | 0.00 | 0.00 | 0.00 | 72 | 1004.0 |
| 20260506181609 | 52 | 316 | 7.0 | 13.0 | 0.00 | 0.00 | 0.00 | 73 | 1004.0 |
| 20260506181409 | 52 | 320 | 5.0 | 13.0 | 0.00 | 0.00 | 0.00 | 73 | 1004.0 |
| 20260506181209 | 52 | 313 | 5.0 | 13.0 | 0.00 | 0.00 | 0.00 | 73 | 1004.0 |
| 20260506181008 | 52 | 321 | 6.0 | 13.0 | 0.00 | 0.00 | 0.00 | 73 | 1004.0 |
| 20260506180809 | 52 | 330 | 9.0 | 13.0 | 0.00 | 0.00 | 0.00 | 73 | 1004.0 |
| 20260506180609 | 52 | 315 | 8.0 | 12.0 | 0.00 | 0.00 | 0.00 | 72 | 1004.0 |
| 20260506180410 | 53 | 293 | 4.0 | 11.0 | 0.00 | 0.00 | 0.00 | 72 | 1004.0 |
| 20260506180209 | 53 | 297 | 4.0 | 11.0 | 0.00 | 0.00 | 0.00 | 72 | 1004.0 |
| 20260506180009 | 53 | 302 | 4.0 | 8.0 | 0.00 | 0.00 | 0.00 | 71 | 1004.0 |
| 20260506175808 | 53 | 283 | 5.0 | 11.0 | 0.00 | 0.00 | 0.00 | 71 | 1004.0 |
| 20260506175608 | 53 | 307 | 4.0 | 11.0 | 0.00 | 0.00 | 0.00 | 71 | 1004.0 |
| 20260506175210 | 53 | 315 | 4.0 | 11.0 | 0.00 | 0.00 | 0.00 | 71 | 1004.0 |
| 20260506175008 | 53 | 314 | 4.0 | 12.0 | 0.00 | 0.00 | 0.00 | 70 | 1004.0 |
| 20260506174809 | 53 | 316 | 7.0 | 12.0 | 0.00 | 0.00 | 0.00 | 70 | 1004.0 |
| 20260506174609 | 54 | 319 | 4.0 | 12.0 | 0.00 | 0.00 | 0.00 | 70 | 1004.0 |
| 20260506174409 | 54 | 327 | 5.0 | 12.0 | 0.00 | 0.00 | 0.00 | 71 | 1004.0 |
| 20260506174209 | 54 | 324 | 7.0 | 12.0 | 0.00 | 0.00 | 0.00 | 71 | 1004.0 |
| 20260506174010 | 54 | 324 | 5.0 | 13.0 | 0.00 | 0.00 | 0.00 | 70 | 1004.0 |
| 20260506173608 | 54 | 321 | 4.0 | 13.0 | 0.00 | 0.00 | 0.00 | 69 | 1004.0 |
| 20260506173009 | 55 | 299 | 6.0 | 9.0 | 0.00 | 0.00 | 0.00 | 66 | 1004.0 |
| 20260506172808 | 55 | 300 | 4.0 | 10.0 | 0.00 | 0.00 | 0.00 | 65 | 1004.0 |
| 20260506172609 | 55 | 314 | 4.0 | 10.0 | 0.00 | 0.00 | 0.00 | 65 | 1004.0 |
| 20260506172408 | 55 | 312 | 4.0 | 12.0 | 0.00 | 0.00 | 0.00 | 64 | 1004.0 |
| 20260506172209 | 55 | 318 | 3.0 | 12.0 | 0.00 | 0.00 | 0.00 | 64 | 1004.0 |
| 20260506171809 | 56 | 314 | 6.0 | 12.0 | 0.00 | 0.00 | 0.00 | 62 | 1004.0 |
| 20260506171609 | 56 | 320 | 9.0 | 12.0 | 0.00 | 0.00 | 0.00 | 60 | 1004.0 |
| 20260506171409 | 56 | 330 | 5.0 | 14.0 | 0.00 | 0.00 | 0.00 | 60 | 1004.0 |
| 20260506171209 | 56 | 324 | 5.0 | 14.0 | 0.00 | 0.00 | 0.00 | 60 | 1004.0 |
| 20260506171009 | 56 | 325 | 6.0 | 14.0 | 0.00 | 0.00 | 0.00 | 61 | 1004.0 |
| 20260506170808 | 56 | 321 | 5.0 | 14.0 | 0.00 | 0.00 | 0.00 | 62 | 1004.0 |
| 20260506170609 | 56 | 317 | 7.0 | 14.0 | 0.00 | 0.00 | 0.00 | 62 | 1004.0 |
| 20260506170410 | 56 | 306 | 6.0 | 12.0 | 0.00 | 0.00 | 0.00 | 63 | 1004.0 |
| 20260506170208 | 56 | 310 | 6.0 | 11.0 | 0.00 | 0.00 | 0.00 | 63 | 1004.0 |
| 20260506170009 | 56 | 294 | 5.0 | 11.0 | 0.00 | 0.00 | 0.00 | 63 | 1004.0 |
| 20260506165809 | 56 | 298 | 4.0 | 12.0 | 0.00 | 0.00 | 0.00 | 61 | 1004.0 |
| 20260506165608 | 57 | 291 | 4.0 | 12.0 | 0.00 | 0.00 | 0.00 | 60 | 1004.0 |
| 20260506165409 | 57 | 291 | 6.0 | 12.0 | 0.00 | 0.00 | 0.00 | 58 | 1004.0 |
| 20260506165009 | 59 | 305 | 4.0 | 12.0 | 0.00 | 0.00 | 0.00 | 56 | 1004.0 |
| 20260506164808 | 59 | 310 | 6.0 | 12.0 | 0.00 | 0.00 | 0.00 | 54 | 1004.0 |
| 20260506164608 | 59 | 309 | 6.0 | 13.0 | 0.00 | 0.00 | 0.00 | 54 | 1004.0 |
| 20260506164409 | 59 | 310 | 8.0 | 13.0 | 0.00 | 0.00 | 0.00 | 55 | 1004.0 |
| 20260506164209 | 58 | 303 | 7.0 | 14.0 | 0.00 | 0.00 | 0.00 | 56 | 1004.0 |
| 20260506164009 | 58 | 302 | 6.0 | 14.0 | 0.00 | 0.00 | 0.00 | 56 | 1004.0 |
| 20260506163808 | 58 | 305 | 5.0 | 17.0 | 0.00 | 0.00 | 0.00 | 56 | 1004.0 |
| 20260506163609 | 59 | 312 | 7.0 | 17.0 | 0.00 | 0.00 | 0.00 | 56 | 1004.0 |
| 20260506163408 | 58 | 316 | 9.0 | 17.0 | 0.00 | 0.00 | 0.00 | 56 | 1004.0 |
| 20260506163208 | 58 | 318 | 8.0 | 17.0 | 0.00 | 0.00 | 0.00 | 57 | 1004.0 |
| 20260506163010 | 58 | 325 | 7.0 | 17.0 | 0.00 | 0.00 | 0.00 | 56 | 1004.0 |
| 20260506162608 | 58 | 309 | 5.0 | 18.0 | 0.00 | 0.00 | 0.00 | 57 | 1004.0 |
| 20260506162409 | 58 | 310 | 7.0 | 18.0 | 0.00 | 0.00 | 0.00 | 56 | 1004.0 |
| 20260506162209 | 58 | 310 | 6.0 | 18.0 | 0.00 | 0.00 | 0.00 | 57 | 1004.0 |
| 20260506162008 | 59 | 296 | 5.0 | 18.0 | 0.00 | 0.00 | 0.00 | 55 | 1004.0 |
| 20260506161609 | 60 | 293 | 5.0 | 14.0 | 0.00 | 0.00 | 0.00 | 52 | 1004.0 |
| 20260506161209 | 60 | 291 | 10.0 | 18.0 | 0.00 | 0.00 | 0.00 | 52 | 1004.0 |
| 20260506161009 | 60 | 300 | 7.0 | 18.0 | 0.00 | 0.00 | 0.00 | 52 | 1004.0 |
| 20260506160609 | 62 | 299 | 4.0 | 18.0 | 0.00 | 0.00 | 0.00 | 50 | 1004.0 |
| 20260506160409 | 61 | 295 | 13.0 | 18.0 | 0.00 | 0.00 | 0.00 | 51 | 1004.0 |
| 20260506160209 | 61 | 298 | 11.0 | 17.0 | 0.00 | 0.00 | 0.00 | 49 | 1004.0 |
| 20260506160009 | 62 | 295 | 10.0 | 16.0 | 0.00 | 0.00 | 0.00 | 49 | 1004.0 |
| 20260506155810 | 61 | 291 | 7.0 | 16.0 | 0.00 | 0.00 | 0.00 | 49 | 1004.0 |
| 20260506155608 | 62 | 289 | 10.0 | 16.0 | 0.00 | 0.00 | 0.00 | 49 | 1004.0 |
| 20260506155408 | 62 | 291 | 7.0 | 16.0 | 0.00 | 0.00 | 0.00 | 48 | 1004.0 |
| 20260506155208 | 63 | 288 | 11.0 | 16.0 | 0.00 | 0.00 | 0.00 | 46 | 1004.0 |
| 20260506155009 | 64 | 285 | 10.0 | 15.0 | 0.00 | 0.00 | 0.00 | 45 | 1004.0 |
| 20260506154808 | 64 | 283 | 7.0 | 15.0 | 0.00 | 0.00 | 0.00 | 45 | 1004.0 |
| 20260506154408 | 64 | 283 | 5.0 | 15.0 | 0.00 | 0.00 | 0.00 | 45 | 1004.0 |
| 20260506154209 | 64 | 291 | 10.0 | 20.0 | 0.00 | 0.00 | 0.00 | 45 | 1004.0 |
| 20260506154010 | 64 | 293 | 7.0 | 20.0 | 0.00 | 0.00 | 0.00 | 46 | 1004.0 |
| 20260506153810 | 64 | 298 | 4.0 | 20.0 | 0.00 | 0.00 | 0.00 | 47 | 1004.0 |
| 20260506153608 | 63 | 299 | 8.0 | 20.0 | 0.00 | 0.00 | 0.00 | 48 | 1004.0 |
| 20260506153409 | 63 | 297 | 15.0 | 20.0 | 0.00 | 0.00 | 0.00 | 47 | 1004.0 |
| 20260506153209 | 63 | 296 | 12.0 | 18.0 | 0.00 | 0.00 | 0.00 | 47 | 1004.0 |
| 20260506153008 | 65 | 298 | 6.0 | 16.0 | 0.00 | 0.00 | 0.00 | 45 | 1004.0 |
| 20260506152809 | 64 | 299 | 5.0 | 16.0 | 0.00 | 0.00 | 0.00 | 45 | 1004.0 |
| 20260506152609 | 64 | 297 | 7.0 | 17.0 | 0.00 | 0.00 | 0.00 | 46 | 1004.0 |
| 20260506152208 | 64 | 299 | 7.0 | 17.0 | 0.00 | 0.00 | 0.00 | 47 | 1004.0 |
| 20260506152009 | 63 | 302 | 10.0 | 17.0 | 0.00 | 0.00 | 0.00 | 48 | 1004.0 |
| 20260506151809 | 62 | 303 | 11.0 | 17.0 | 0.00 | 0.00 | 0.00 | 47 | 1004.0 |
| 20260506151609 | 65 | 306 | 6.0 | 16.0 | 0.00 | 0.00 | 0.00 | 45 | 1004.0 |
| 20260506151408 | 65 | 309 | 7.0 | 16.0 | 0.00 | 0.00 | 0.00 | 46 | 1004.0 |
| 20260506151209 | 64 | 310 | 10.0 | 16.0 | 0.00 | 0.00 | 0.00 | 46 | 1004.0 |
| 20260506151008 | 65 | 301 | 4.0 | 15.0 | 0.00 | 0.00 | 0.00 | 46 | 1004.0 |
| 20260506150809 | 65 | 289 | 7.0 | 15.0 | 0.00 | 0.00 | 0.00 | 45 | 1004.0 |
| 20260506150609 | 65 | 284 | 8.0 | 15.0 | 0.00 | 0.00 | 0.00 | 46 | 1004.0 |
| 20260506150408 | 65 | 279 | 9.0 | 15.0 | 0.00 | 0.00 | 0.00 | 47 | 1004.0 |
| 20260506150210 | 65 | 276 | 7.0 | 15.0 | 0.00 | 0.00 | 0.00 | 48 | 1004.0 |
| 20260506145609 | 65 | 284 | 8.0 | 14.0 | 0.00 | 0.00 | 0.00 | 48 | 1004.0 |
| 20260506145409 | 63 | 292 | 9.0 | 17.0 | 0.00 | 0.00 | 0.00 | 49 | 1004.0 |
| 20260506145209 | 62 | 293 | 9.0 | 17.0 | 0.00 | 0.00 | 0.00 | 48 | 1004.0 |
| 20260506145008 | 64 | 297 | 9.0 | 17.0 | 0.00 | 0.00 | 0.00 | 47 | 1004.0 |
| 20260506144809 | 64 | 300 | 8.0 | 19.0 | 0.00 | 0.00 | 0.00 | 49 | 1004.0 |
| 20260506144609 | 63 | 298 | 14.0 | 19.0 | 0.00 | 0.00 | 0.00 | 50 | 1004.0 |
| 20260506144408 | 63 | 293 | 8.0 | 19.0 | 0.00 | 0.00 | 0.00 | 50 | 1004.0 |
| 20260506144209 | 64 | 291 | 9.0 | 19.0 | 0.00 | 0.00 | 0.00 | 48 | 1004.0 |
| 20260506144010 | 64 | 287 | 14.0 | 19.0 | 0.00 | 0.00 | 0.00 | 47 | 1004.0 |
| 20260506143809 | 65 | 280 | 8.0 | 17.0 | 0.00 | 0.00 | 0.00 | 46 | 1004.0 |
| 20260506143409 | 66 | 284 | 11.0 | 21.0 | 0.00 | 0.00 | 0.00 | 48 | 1004.0 |
| 20260506143208 | 65 | 287 | 9.0 | 21.0 | 0.00 | 0.00 | 0.00 | 46 | 1004.0 |
| 20260506143008 | 67 | 292 | 9.0 | 21.0 | 0.00 | 0.00 | 0.00 | 45 | 1004.0 |
| 20260506142809 | 66 | 298 | 15.0 | 21.0 | 0.00 | 0.00 | 0.00 | 45 | 1004.0 |
| 20260506142408 | 66 | 299 | 12.0 | 21.0 | 0.00 | 0.00 | 0.00 | 47 | 1004.0 |
| 20260506142208 | 67 | 300 | 8.0 | 21.0 | 0.00 | 0.00 | 0.00 | 46 | 1004.0 |
| 20260506142009 | 66 | 297 | 13.0 | 21.0 | 0.00 | 0.00 | 0.00 | 44 | 1004.0 |
| 20260506141810 | 67 | 291 | 7.0 | 21.0 | 0.00 | 0.00 | 0.00 | 44 | 1004.0 |
| 20260506141608 | 66 | 285 | 8.0 | 21.0 | 0.00 | 0.00 | 0.00 | 45 | 1004.0 |
| 20260506141408 | 65 | 278 | 9.0 | 21.0 | 0.00 | 0.00 | 0.00 | 45 | 1004.0 |
| 20260506141209 | 66 | 273 | 15.0 | 21.0 | 0.00 | 0.00 | 0.00 | 46 | 1004.0 |
| 20260506141009 | 65 | 265 | 13.0 | 17.0 | 0.00 | 0.00 | 0.00 | 47 | 1004.0 |
| 20260506140808 | 65 | 266 | 5.0 | 17.0 | 0.00 | 0.00 | 0.00 | 46 | 1004.0 |
| 20260506140609 | 65 | 268 | 6.0 | 17.0 | 0.00 | 0.00 | 0.00 | 46 | 1004.0 |
| 20260506140410 | 65 | 269 | 8.0 | 17.0 | 0.00 | 0.00 | 0.00 | 46 | 1004.0 |
| 20260506140209 | 64 | 267 | 13.0 | 17.0 | 0.00 | 0.00 | 0.00 | 46 | 1004.0 |
| 20260506140009 | 64 | 265 | 10.0 | 20.0 | 0.00 | 0.00 | 0.00 | 49 | 1004.0 |
| 20260506135810 | 63 | 263 | 9.0 | 20.0 | 0.00 | 0.00 | 0.00 | 49 | 1004.0 |
| 20260506135608 | 65 | 262 | 8.0 | 20.0 | 0.00 | 0.00 | 0.00 | 47 | 1004.0 |
| 20260506135009 | 62 | 271 | 15.0 | 20.0 | 0.00 | 0.00 | 0.00 | 49 | 1004.0 |
| 20260506134808 | 64 | 270 | 11.0 | 19.0 | 0.00 | 0.00 | 0.00 | 45 | 1004.0 |
| 20260506134608 | 66 | 264 | 11.0 | 19.0 | 0.00 | 0.00 | 0.00 | 44 | 1004.0 |
| 20260506134409 | 66 | 263 | 13.0 | 19.0 | 0.00 | 0.00 | 0.00 | 43 | 1003.0 |
| 20260506134010 | 66 | 255 | 11.0 | 19.0 | 0.00 | 0.00 | 0.00 | 41 | 1003.0 |
| 20260506133609 | 68 | 263 | 10.0 | 19.0 | 0.00 | 0.00 | 0.00 | 41 | 1003.0 |
| 20260506133410 | 68 | 261 | 15.0 | 22.0 | 0.00 | 0.00 | 0.00 | 42 | 1003.0 |
| 20260506133209 | 69 | 262 | 7.0 | 22.0 | 0.00 | 0.00 | 0.00 | 40 | 1003.0 |
| 20260506133008 | 67 | 256 | 12.0 | 22.0 | 0.00 | 0.00 | 0.00 | 43 | 1003.0 |
| 20260506132809 | 66 | 255 | 12.0 | 22.0 | 0.00 | 0.00 | 0.00 | 42 | 1004.0 |
| 20260506132609 | 67 | 252 | 13.0 | 22.0 | 0.00 | 0.00 | 0.00 | 43 | 1004.0 |
| 20260506132409 | 67 | 249 | 10.0 | 21.0 | 0.00 | 0.00 | 0.00 | 42 | 1004.0 |
| 20260506132009 | 69 | 239 | 11.0 | 21.0 | 0.00 | 0.00 | 0.00 | 42 | 1004.0 |
| 20260506131808 | 67 | 241 | 14.0 | 21.0 | 0.00 | 0.00 | 0.00 | 43 | 1004.0 |
| 20260506131609 | 67 | 238 | 7.0 | 21.0 | 0.00 | 0.00 | 0.00 | 42 | 1004.0 |
| 20260506131209 | 66 | 243 | 12.0 | 21.0 | 0.00 | 0.00 | 0.00 | 43 | 1004.0 |
| 20260506131008 | 66 | 250 | 13.0 | 21.0 | 0.00 | 0.00 | 0.00 | 44 | 1004.0 |
| 20260506130809 | 67 | 247 | 7.0 | 21.0 | 0.00 | 0.00 | 0.00 | 43 | 1004.0 |
| 20260506130625 | 66 | 242 | 11.0 | 16.0 | 0.00 | 0.00 | 0.00 | 44 | 1004.0 |
| 20260506130410 | 66 | 245 | 11.0 | 16.0 | 0.00 | 0.00 | 0.00 | 45 | 1004.0 |
| 20260506130010 | 64 | 253 | 10.0 | 18.0 | 0.00 | 0.00 | 0.00 | 49 | 1004.0 |
| 20260506125809 | 62 | 252 | 11.0 | 18.0 | 0.00 | 0.00 | 0.00 | 51 | 1004.0 |
| 20260506125608 | 62 | 256 | 12.0 | 18.0 | 0.00 | 0.00 | 0.00 | 51 | 1004.0 |
| 20260506125209 | 65 | 256 | 13.0 | 18.0 | 0.00 | 0.00 | 0.00 | 47 | 1004.0 |
| 20260506125010 | 67 | 250 | 7.0 | 16.0 | 0.00 | 0.00 | 0.00 | 44 | 1004.0 |
| 20260506124809 | 65 | 252 | 11.0 | 16.0 | 0.00 | 0.00 | 0.00 | 47 | 1004.0 |
| 20260506124609 | 64 | 254 | 12.0 | 16.0 | 0.00 | 0.00 | 0.00 | 49 | 1004.0 |
| 20260506124209 | 63 | 249 | 10.0 | 19.0 | 0.00 | 0.00 | 0.00 | 51 | 1004.0 |
| 20260506124009 | 62 | 248 | 11.0 | 19.0 | 0.00 | 0.00 | 0.00 | 52 | 1004.0 |
| 20260506123211 | 63 | 228 | 8.0 | 19.0 | 0.00 | 0.00 | 0.00 | 49 | 1004.0 |
| 20260506123012 | 63 | 227 | 9.0 | 21.0 | 0.00 | 0.00 | 0.00 | 49 | 1004.0 |
| 20260506122808 | 63 | 230 | 9.0 | 21.0 | 0.00 | 0.00 | 0.00 | 49 | 1003.0 |
| 20260506122608 | 63 | 236 | 11.0 | 21.0 | 0.00 | 0.00 | 0.00 | 50 | 1003.0 |
| 20260506122409 | 63 | 241 | 13.0 | 21.0 | 0.00 | 0.00 | 0.00 | 50 | 1003.0 |
| 20260506121808 | 62 | 244 | 10.0 | 16.0 | 0.00 | 0.00 | 0.00 | 52 | 1003.0 |
| 20260506121609 | 63 | 246 | 11.0 | 19.0 | 0.00 | 0.00 | 0.00 | 53 | 1003.0 |
| 20260506121409 | 63 | 250 | 11.0 | 21.0 | 0.00 | 0.00 | 0.00 | 53 | 1003.0 |
| 20260506121008 | 62 | 260 | 11.0 | 21.0 | 0.00 | 0.00 | 0.00 | 54 | 1003.0 |
| 20260506120809 | 62 | 260 | 10.0 | 21.0 | 0.00 | 0.00 | 0.00 | 53 | 1003.0 |
| 20260506120609 | 62 | 256 | 14.0 | 21.0 | 0.00 | 0.00 | 0.00 | 51 | 1003.0 |
| 20260506120409 | 64 | 241 | 7.0 | 21.0 | 0.00 | 0.00 | 0.00 | 51 | 1003.0 |
| 20260506120008 | 63 | 224 | 12.0 | 24.0 | 0.00 | 0.00 | 0.00 | 50 | 1003.0 |
| 20260506115809 | 64 | 221 | 11.0 | 24.0 | 0.00 | 0.00 | 0.00 | 47 | 1003.0 |
| 20260506115609 | 63 | 215 | 16.0 | 24.0 | 0.00 | 0.00 | 0.00 | 47 | 1003.0 |
| 20260506115408 | 64 | 217 | 14.0 | 24.0 | 0.00 | 0.00 | 0.00 | 46 | 1003.0 |
| 20260506115208 | 64 | 223 | 15.0 | 24.0 | 0.00 | 0.00 | 0.00 | 46 | 1003.0 |
| 20260506115009 | 64 | 225 | 18.0 | 24.0 | 0.00 | 0.00 | 0.00 | 45 | 1003.0 |
| 20260506114809 | 64 | 225 | 19.0 | 24.0 | 0.00 | 0.00 | 0.00 | 45 | 1003.0 |
| 20260506114608 | 64 | 232 | 17.0 | 24.0 | 0.00 | 0.00 | 0.00 | 45 | 1003.0 |
| 20260506114409 | 65 | 238 | 13.0 | 23.0 | 0.00 | 0.00 | 0.00 | 44 | 1003.0 |
| 20260506114209 | 65 | 237 | 11.0 | 21.0 | 0.00 | 0.00 | 0.00 | 45 | 1003.0 |
| 20260506114010 | 65 | 236 | 11.0 | 21.0 | 0.00 | 0.00 | 0.00 | 45 | 1003.0 |
| 20260506113608 | 66 | 230 | 15.0 | 21.0 | 0.00 | 0.00 | 0.00 | 45 | 1003.0 |
| 20260506113209 | 65 | 222 | 11.0 | 19.0 | 0.00 | 0.00 | 0.00 | 46 | 1003.0 |
| 20260506112808 | 64 | 220 | 15.0 | 23.0 | 0.00 | 0.00 | 0.00 | 45 | 1003.0 |
| 20260506112409 | 64 | 217 | 16.0 | 23.0 | 0.00 | 0.00 | 0.00 | 47 | 1003.0 |
| 20260506112209 | 64 | 217 | 16.0 | 23.0 | 0.00 | 0.00 | 0.00 | 46 | 1003.0 |
| 20260506112008 | 65 | 225 | 14.0 | 23.0 | 0.00 | 0.00 | 0.00 | 46 | 1003.0 |
| 20260506111409 | 63 | 232 | 11.0 | 23.0 | 0.00 | 0.00 | 0.00 | 50 | 1003.0 |
| 20260506111209 | 62 | 238 | 12.0 | 23.0 | 0.00 | 0.00 | 0.00 | 51 | 1003.0 |
| 20260506111008 | 62 | 237 | 10.0 | 20.0 | 0.00 | 0.00 | 0.00 | 51 | 1003.0 |
| 20260506110810 | 64 | 239 | 10.0 | 15.0 | 0.00 | 0.00 | 0.00 | 51 | 1003.0 |
| 20260506110609 | 63 | 238 | 11.0 | 15.0 | 0.00 | 0.00 | 0.00 | 51 | 1003.0 |
| 20260506110408 | 63 | 233 | 9.0 | 19.0 | 0.00 | 0.00 | 0.00 | 51 | 1003.0 |
| 20260506110009 | 65 | 224 | 9.0 | 19.0 | 0.00 | 0.00 | 0.00 | 48 | 1003.0 |
| 20260506105809 | 64 | 226 | 10.0 | 19.0 | 0.00 | 0.00 | 0.00 | 49 | 1003.0 |
| 20260506105608 | 63 | 225 | 12.0 | 19.0 | 0.00 | 0.00 | 0.00 | 49 | 1003.0 |
| 20260506105409 | 64 | 222 | 7.0 | 19.0 | 0.00 | 0.00 | 0.00 | 50 | 1003.0 |
| 20260506105209 | 63 | 219 | 12.0 | 19.0 | 0.00 | 0.00 | 0.00 | 51 | 1003.0 |
| 20260506105008 | 63 | 215 | 11.0 | 19.0 | 0.00 | 0.00 | 0.00 | 51 | 1003.0 |
| 20260506104812 | 63 | 213 | 12.0 | 20.0 | 0.00 | 0.00 | 0.00 | 52 | 1003.0 |
| 20260506104609 | 62 | 214 | 12.0 | 20.0 | 0.00 | 0.00 | 0.00 | 52 | 1003.0 |
| 20260506104408 | 62 | 217 | 11.0 | 20.0 | 0.00 | 0.00 | 0.00 | 53 | 1003.0 |
| 20260506104009 | 62 | 222 | 13.0 | 20.0 | 0.00 | 0.00 | 0.00 | 53 | 1003.0 |
| 20260506103809 | 62 | 225 | 13.0 | 20.0 | 0.00 | 0.00 | 0.00 | 54 | 1003.0 |
| 20260506103609 | 62 | 222 | 11.0 | 21.0 | 0.00 | 0.00 | 0.00 | 52 | 1003.0 |
| 20260506103208 | 62 | 216 | 14.0 | 21.0 | 0.00 | 0.00 | 0.00 | 52 | 1003.0 |
| 20260506103009 | 61 | 213 | 13.0 | 21.0 | 0.00 | 0.00 | 0.00 | 53 | 1003.0 |
| 20260506102809 | 61 | 209 | 13.0 | 22.0 | 0.00 | 0.00 | 0.00 | 53 | 1003.0 |
| 20260506102608 | 62 | 209 | 10.0 | 22.0 | 0.00 | 0.00 | 0.00 | 52 | 1003.0 |
| 20260506102410 | 61 | 211 | 15.0 | 22.0 | 0.00 | 0.00 | 0.00 | 54 | 1003.0 |
| 20260506102209 | 61 | 215 | 15.0 | 22.0 | 0.00 | 0.00 | 0.00 | 52 | 1003.0 |
| 20260506102008 | 62 | 221 | 7.0 | 22.0 | 0.00 | 0.00 | 0.00 | 52 | 1003.0 |
| 20260506101809 | 62 | 223 | 7.0 | 16.0 | 0.00 | 0.00 | 0.00 | 54 | 1003.0 |
| 20260506101609 | 61 | 222 | 11.0 | 16.0 | 0.00 | 0.00 | 0.00 | 56 | 1003.0 |
| 20260506101408 | 61 | 222 | 10.0 | 16.0 | 0.00 | 0.00 | 0.00 | 58 | 1003.0 |
| 20260506101209 | 61 | 219 | 11.0 | 16.0 | 0.00 | 0.00 | 0.00 | 58 | 1003.0 |
| 20260506101008 | 60 | 215 | 8.0 | 16.0 | 0.00 | 0.00 | 0.00 | 58 | 1003.0 |
| 20260506100609 | 60 | 222 | 11.0 | 15.0 | 0.00 | 0.00 | 0.00 | 59 | 1003.0 |
| 20260506100410 | 61 | 224 | 10.0 | 15.0 | 0.00 | 0.00 | 0.00 | 60 | 1003.0 |
| 20260506100209 | 61 | 226 | 8.0 | 15.0 | 0.00 | 0.00 | 0.00 | 60 | 1003.0 |
| 20260506100009 | 60 | 227 | 11.0 | 15.0 | 0.00 | 0.00 | 0.00 | 60 | 1003.0 |
| 20260506095808 | 60 | 223 | 10.0 | 15.0 | 0.00 | 0.00 | 0.00 | 61 | 1003.0 |
| 20260506095609 | 60 | 216 | 9.0 | 15.0 | 0.00 | 0.00 | 0.00 | 60 | 1003.0 |
| 20260506095209 | 60 | 207 | 7.0 | 15.0 | 0.00 | 0.00 | 0.00 | 62 | 1003.0 |
| 20260506094609 | 59 | 208 | 10.0 | 15.0 | 0.00 | 0.00 | 0.00 | 65 | 1003.0 |
| 20260506094410 | 59 | 209 | 10.0 | 15.0 | 0.00 | 0.00 | 0.00 | 66 | 1002.0 |
| 20260506094210 | 59 | 211 | 11.0 | 15.0 | 0.00 | 0.00 | 0.00 | 66 | 1002.0 |
| 20260506094008 | 59 | 209 | 10.0 | 15.0 | 0.00 | 0.00 | 0.00 | 65 | 1002.0 |
| 20260506093809 | 59 | 207 | 9.0 | 15.0 | 0.00 | 0.00 | 0.00 | 66 | 1002.0 |
| 20260506093609 | 58 | 209 | 10.0 | 14.0 | 0.00 | 0.00 | 0.00 | 67 | 1002.0 |
| 20260506093008 | 58 | 213 | 9.0 | 17.0 | 0.00 | 0.00 | 0.00 | 67 | 1002.0 |
| 20260506092809 | 58 | 216 | 8.0 | 20.0 | 0.00 | 0.00 | 0.00 | 67 | 1002.0 |
| 20260506092408 | 59 | 209 | 11.0 | 20.0 | 0.00 | 0.00 | 0.00 | 66 | 1002.0 |
| 20260506092209 | 59 | 209 | 11.0 | 20.0 | 0.00 | 0.00 | 0.00 | 67 | 1002.0 |
| 20260506091809 | 58 | 203 | 10.0 | 16.0 | 0.00 | 0.00 | 0.00 | 67 | 1002.0 |
| 20260506091608 | 58 | 208 | 7.0 | 15.0 | 0.00 | 0.00 | 0.00 | 65 | 1002.0 |
| 20260506091209 | 59 | 212 | 7.0 | 13.0 | 0.00 | 0.00 | 0.00 | 64 | 1002.0 |
| 20260506091008 | 60 | 211 | 8.0 | 13.0 | 0.00 | 0.00 | 0.00 | 65 | 1002.0 |
| 20260506090808 | 60 | 209 | 8.0 | 14.0 | 0.00 | 0.00 | 0.00 | 66 | 1002.0 |
| 20260506090608 | 59 | 208 | 9.0 | 14.0 | 0.00 | 0.00 | 0.00 | 67 | 1002.0 |
| 20260506090009 | 58 | 211 | 10.0 | 15.0 | 0.00 | 0.00 | 0.00 | 69 | 1002.0 |
| 20260506085808 | 58 | 211 | 8.0 | 15.0 | 0.00 | 0.00 | 0.00 | 70 | 1002.0 |
| 20260506085608 | 57 | 209 | 9.0 | 15.0 | 0.00 | 0.00 | 0.00 | 71 | 1002.0 |
| 20260506085409 | 58 | 209 | 12.0 | 15.0 | 0.00 | 0.00 | 0.00 | 73 | 1002.0 |
| 20260506085208 | 57 | 204 | 9.0 | 14.0 | 0.00 | 0.00 | 0.00 | 74 | 1002.0 |
| 20260506085008 | 56 | 194 | 8.0 | 14.0 | 0.00 | 0.00 | 0.00 | 76 | 1002.0 |
| 20260506084609 | 56 | 191 | 6.0 | 13.0 | 0.00 | 0.00 | 0.00 | 76 | 1002.0 |
| 20260506084208 | 56 | 190 | 7.0 | 15.0 | 0.00 | 0.00 | 0.00 | 76 | 1002.0 |
| 20260506084008 | 56 | 191 | 9.0 | 15.0 | 0.00 | 0.00 | 0.00 | 74 | 1002.0 |
| 20260506083810 | 56 | 190 | 11.0 | 15.0 | 0.00 | 0.00 | 0.00 | 73 | 1002.0 |
| 20260506083209 | 58 | 182 | 6.0 | 13.0 | 0.00 | 0.00 | 0.00 | 71 | 1002.0 |
| 20260506083009 | 58 | 185 | 8.0 | 14.0 | 0.00 | 0.00 | 0.00 | 71 | 1002.0 |
| 20260506082808 | 59 | 188 | 9.0 | 14.0 | 0.00 | 0.00 | 0.00 | 70 | 1002.0 |
| 20260506082608 | 59 | 187 | 7.0 | 14.0 | 0.00 | 0.00 | 0.00 | 72 | 1002.0 |
| 20260506082408 | 58 | 188 | 8.0 | 14.0 | 0.00 | 0.00 | 0.00 | 73 | 1002.0 |
| 20260506082209 | 57 | 195 | 11.0 | 15.0 | 0.00 | 0.00 | 0.00 | 75 | 1002.0 |
| 20260506082009 | 56 | 197 | 7.0 | 17.0 | 0.00 | 0.00 | 0.00 | 74 | 1002.0 |
| 20260506081808 | 57 | 191 | 8.0 | 17.0 | 0.00 | 0.00 | 0.00 | 74 | 1002.0 |
| 20260506081608 | 57 | 190 | 9.0 | 17.0 | 0.00 | 0.00 | 0.00 | 75 | 1002.0 |
| 20260506081408 | 56 | 190 | 10.0 | 17.0 | 0.00 | 0.00 | 0.00 | 75 | 1002.0 |
| 20260506081008 | 60 | 170 | 7.0 | 12.0 | 0.00 | 0.00 | 0.00 | 73 | 1002.0 |
| 20260506080808 | 58 | 175 | 9.0 | 13.0 | 0.00 | 0.00 | 0.00 | 73 | 1002.0 |
| 20260506080609 | 58 | 172 | 7.0 | 13.0 | 0.00 | 0.00 | 0.00 | 73 | 1002.0 |
| 20260506080408 | 57 | 172 | 9.0 | 13.0 | 0.00 | 0.00 | 0.00 | 74 | 1002.0 |
| 20260506080209 | 57 | 173 | 8.0 | 13.0 | 0.00 | 0.00 | 0.00 | 76 | 1002.0 |
| 20260506073407 | 53 | 156 | 6.0 | 11.0 | 0.00 | 0.00 | 0.00 | 84 | 1002.0 |
| 20260506072808 | 52 | 151 | 9.0 | 13.0 | 0.00 | 0.00 | 0.00 | 84 | 1002.0 |
| 20260506072608 | 51 | 152 | 9.0 | 13.0 | 0.00 | 0.00 | 0.00 | 84 | 1002.0 |
| 20260506072408 | 51 | 151 | 8.0 | 13.0 | 0.00 | 0.00 | 0.00 | 84 | 1002.0 |
| 20260506072008 | 51 | 151 | 9.0 | 13.0 | 0.00 | 0.00 | 0.00 | 85 | 1002.0 |
| 20260506071808 | 51 | 152 | 7.0 | 12.0 | 0.00 | 0.00 | 0.00 | 85 | 1002.0 |
| 20260506071408 | 51 | 153 | 7.0 | 13.0 | 0.00 | 0.00 | 0.00 | 85 | 1002.0 |
| 20260506071208 | 51 | 153 | 9.0 | 13.0 | 0.00 | 0.00 | 0.00 | 85 | 1002.0 |
| 20260506071008 | 51 | 150 | 5.0 | 13.0 | 0.00 | 0.00 | 0.00 | 85 | 1002.0 |
| 20260506070808 | 51 | 147 | 8.0 | 13.0 | 0.00 | 0.00 | 0.00 | 86 | 1002.0 |
| 20260506070607 | 51 | 147 | 8.0 | 13.0 | 0.00 | 0.00 | 0.00 | 86 | 1002.0 |
| 20260506070408 | 50 | 147 | 7.0 | 10.0 | 0.00 | 0.00 | 0.00 | 86 | 1002.0 |
| 20260506062407 | 50 | 137 | 5.0 | 8.0 | 0.00 | 0.00 | 0.00 | 88 | 1002.0 |
| 20260506062208 | 49 | 135 | 6.0 | 8.0 | 0.00 | 0.00 | 0.00 | 88 | 1002.0 |
| 20260506062007 | 49 | 135 | 5.0 | 8.0 | 0.00 | 0.00 | 0.00 | 88 | 1002.0 |
| 20260506061807 | 49 | 129 | 7.0 | 9.0 | 0.00 | 0.00 | 0.00 | 88 | 1002.0 |
| 20260506061608 | 49 | 130 | 3.0 | 9.0 | 0.00 | 0.00 | 0.00 | 88 | 1002.0 |
| 20260506061408 | 49 | 127 | 5.0 | 9.0 | 0.00 | 0.00 | 0.00 | 88 | 1002.0 |
| 20260506061207 | 49 | 127 | 5.0 | 9.0 | 0.00 | 0.00 | 0.00 | 88 | 1002.0 |
| 20260506061007 | 49 | 122 | 7.0 | 9.0 | 0.00 | 0.00 | 0.00 | 89 | 1002.0 |
| 20260506060808 | 49 | 125 | 4.0 | 9.0 | 0.00 | 0.00 | 0.00 | 89 | 1002.0 |
| 20260506060607 | 49 | 126 | 7.0 | 9.0 | 0.00 | 0.00 | 0.00 | 89 | 1002.0 |
| 20260506060407 | 49 | 124 | 8.0 | 10.0 | 0.00 | 0.00 | 0.00 | 89 | 1002.0 |
| 20260506060208 | 49 | 123 | 7.0 | 11.0 | 0.00 | 0.00 | 0.00 | 89 | 1002.0 |
| 20260506051407 | 48 | 96 | 6.0 | 8.0 | 0.00 | 0.00 | 0.00 | 90 | 1003.0 |
| 20260506051207 | 48 | 93 | 5.0 | 8.0 | 0.00 | 0.00 | 0.00 | 90 | 1003.0 |
| 20260506051007 | 48 | 89 | 5.0 | 8.0 | 0.00 | 0.00 | 0.00 | 90 | 1003.0 |
| 20260506050807 | 48 | 84 | 4.0 | 7.0 | 0.00 | 0.00 | 0.00 | 90 | 1003.0 |
| 20260506050607 | 48 | 87 | 4.0 | 7.0 | 0.00 | 0.00 | 0.00 | 90 | 1003.0 |
| 20260506050407 | 48 | 90 | 5.0 | 7.0 | 0.00 | 0.00 | 0.00 | 90 | 1003.0 |
| 20260506050207 | 48 | 83 | 4.0 | 9.0 | 0.00 | 0.00 | 0.00 | 90 | 1003.0 |
| 20260506045007 | 48 | 69 | 7.0 | 8.0 | 0.00 | 0.00 | 0.00 | 90 | 1003.0 |
| 20260506044607 | 48 | 67 | 4.0 | 7.0 | 0.00 | 0.00 | 0.00 | 90 | 1003.0 |
| 20260506044407 | 48 | 65 | 5.0 | 7.0 | 0.00 | 0.00 | 0.00 | 90 | 1003.0 |
| 20260506044207 | 48 | 78 | 4.0 | 7.0 | 0.00 | 0.00 | 0.00 | 90 | 1003.0 |
| 20260506044007 | 48 | 87 | 3.0 | 7.0 | 0.00 | 0.00 | 0.00 | 90 | 1003.0 |
| 20260506043807 | 48 | 86 | 0.0 | 7.0 | 0.00 | 0.00 | 0.00 | 90 | 1003.0 |
| 20260506043607 | 48 | 81 | 3.0 | 7.0 | 0.00 | 0.00 | 0.00 | 90 | 1003.0 |
| 20260506043406 | 48 | 82 | 0.0 | 9.0 | 0.00 | 0.00 | 0.00 | 90 | 1003.0 |
| 20260506042807 | 48 | 64 | 3.0 | 11.0 | 0.00 | 0.00 | 0.00 | 90 | 1003.0 |
| 20260506042607 | 48 | 64 | 6.0 | 11.0 | 0.00 | 0.00 | 0.00 | 90 | 1003.0 |
| 20260506042406 | 48 | 62 | 6.0 | 11.0 | 0.00 | 0.00 | 0.00 | 90 | 1003.0 |
| 20260506042007 | 48 | 50 | 7.0 | 10.0 | 0.00 | 0.00 | 0.00 | 90 | 1003.0 |
| 20260506041806 | 48 | 57 | 7.0 | 11.0 | 0.00 | 0.00 | 0.00 | 90 | 1003.0 |
| 20260506041606 | 48 | 53 | 4.0 | 11.0 | 0.00 | 0.00 | 0.00 | 90 | 1003.0 |
| 20260506041208 | 48 | 46 | 0.0 | 11.0 | 0.00 | 0.00 | 0.00 | 90 | 1003.0 |
| 20260506041007 | 48 | 41 | 6.0 | 11.0 | 0.00 | 0.00 | 0.00 | 90 | 1003.0 |
| 20260506040810 | 48 | 33 | 6.0 | 11.0 | 0.00 | 0.00 | 0.00 | 90 | 1003.0 |
| 20260506040606 | 48 | 27 | 5.0 | 11.0 | 0.00 | 0.00 | 0.00 | 90 | 1003.0 |
| 20260506040407 | 48 | 32 | 4.0 | 11.0 | 0.00 | 0.00 | 0.00 | 90 | 1003.0 |
| 20260506040207 | 48 | 25 | 7.0 | 11.0 | 0.00 | 0.00 | 0.00 | 90 | 1003.0 |
| 20260506040006 | 48 | 28 | 4.0 | 9.0 | 0.00 | 0.00 | 0.00 | 90 | 1003.0 |
| 20260506035808 | 48 | 33 | 6.0 | 12.0 | 0.00 | 0.00 | 0.00 | 90 | 1002.0 |
| 20260506035406 | 48 | 25 | 5.0 | 12.0 | 0.00 | 0.00 | 0.00 | 90 | 1002.0 |
| 20260506035006 | 48 | 27 | 10.0 | 12.0 | 0.00 | 0.00 | 0.00 | 90 | 1002.0 |
| 20260506034807 | 48 | 21 | 5.0 | 11.0 | 0.00 | 0.00 | 0.00 | 90 | 1002.0 |
| 20260506034606 | 48 | 20 | 4.0 | 11.0 | 0.00 | 0.00 | 0.00 | 90 | 1002.0 |
| 20260506034406 | 48 | 24 | 5.0 | 11.0 | 0.00 | 0.00 | 0.00 | 90 | 1002.0 |
| 20260506034207 | 48 | 23 | 7.0 | 11.0 | 0.00 | 0.00 | 0.00 | 90 | 1002.0 |
| 20260506034006 | 48 | 17 | 7.0 | 11.0 | 0.00 | 0.00 | 0.00 | 90 | 1002.0 |
| 20260506033806 | 48 | 11 | 6.0 | 12.0 | 0.00 | 0.00 | 0.00 | 90 | 1002.0 |
| 20260506033607 | 48 | 10 | 4.0 | 12.0 | 0.00 | 0.00 | 0.00 | 90 | 1002.0 |
| 20260506033206 | 48 | 10 | 4.0 | 13.0 | 0.00 | 0.00 | 0.00 | 90 | 1002.0 |
| 20260506033006 | 48 | 16 | 10.0 | 13.0 | 0.00 | 0.00 | 0.00 | 90 | 1002.0 |
| 20260506032807 | 48 | 20 | 8.0 | 14.0 | 0.00 | 0.00 | 0.00 | 90 | 1002.0 |
| 20260506032608 | 48 | 19 | 10.0 | 14.0 | 0.00 | 0.00 | 0.00 | 90 | 1002.0 |
| 20260506032406 | 49 | 22 | 7.0 | 14.0 | 0.00 | 0.00 | 0.00 | 90 | 1002.0 |
| 20260506032208 | 48 | 23 | 9.0 | 14.0 | 0.00 | 0.00 | 0.00 | 90 | 1002.0 |
| 20260506032006 | 48 | 20 | 9.0 | 14.0 | 0.00 | 0.00 | 0.00 | 90 | 1002.0 |
| 20260506031806 | 49 | 18 | 9.0 | 13.0 | 0.00 | 0.00 | 0.00 | 90 | 1002.0 |
| 20260506031606 | 49 | 20 | 7.0 | 13.0 | 0.00 | 0.00 | 0.00 | 90 | 1002.0 |
| 20260506031406 | 49 | 19 | 9.0 | 13.0 | 0.00 | 0.00 | 0.00 | 90 | 1003.0 |
| 20260506031206 | 49 | 19 | 8.0 | 12.0 | 0.00 | 0.00 | 0.00 | 90 | 1003.0 |
| 20260506031006 | 49 | 23 | 9.0 | 11.0 | 0.00 | 0.00 | 0.00 | 90 | 1003.0 |
| 20260506030807 | 49 | 22 | 7.0 | 11.0 | 0.00 | 0.00 | 0.00 | 90 | 1003.0 |
| 20260506030406 | 49 | 23 | 5.0 | 11.0 | 0.00 | 0.00 | 0.00 | 90 | 1003.0 |